Hourly Data Report for September 06, 2017

All times are specified in Local Standard Time (LST). Add 1 hour to adjust for Daylight Saving Time where and when it is observed.

PANGNIRTUNG
NUNAVUT

66°08'36.300" N
65°42'40.500" W
22.60 m
2403049
71826
WXP

Download Data

Hourly Data (September 2017)
Hourly Data Report for September 6, 2017
Temp Definition
°C
Dew Point Temp Definition
°C
Rel Hum Definition
%
Wind Dir Definition
10's deg

Wind Spd Definition
km/h
Visibility Definition
km
Stn Press Definition
kPa
Hmdx Definition


Wind Chill Definition


Weather Definition


TIME
00:00 2.5 -0.2 82 0 1   100.29     LegendNANA
01:00 2.4 0.1 85 12 5   100.29     LegendNANA
02:00 2.6 -0.9 78 13 2   100.29     LegendNANA
03:00 2.1 -0.8 81 11 2   100.28     LegendNANA
04:00 2.6 -1.0 77 11 9   100.30     LegendNANA
05:00 2.6 -0.8 78 10 12   100.30     LegendNANA
06:00 3.0 -0.7 77 8 10   100.33     LegendNANA
07:00 3.5 -0.6 74 8 11   100.34     LegendNANA
08:00 3.7 -0.7 73 4 7   100.34     LegendNANA
09:00 4.4 -0.8 69 29 5   100.35     LegendNANA
10:00 4.4 -1.1 68 30 5   100.37     LegendNANA
11:00 5.0 0.7 73 27 5   100.36     LegendNANA
12:00 4.4 0.9 78 26 14   100.38     LegendNANA
13:00 4.7 0.7 76 26 17   100.42     LegendNANA
14:00 4.7 0.4 74 26 19   100.45     LegendNANA
15:00 4.4 1.1 79 26 18   100.47     LegendNANA
16:00 3.8 0.9 81 25 18   100.52     LegendNANA
17:00 3.8 1.9 87 25 17   100.56     LegendNANA
18:00 3.7 2.0 89 23 13   100.60     LegendNANA
19:00 2.9 1.4 90 22 8   100.64     LegendNANA
20:00 2.6 1.1 90 12 2   100.68     LegendNANA
21:00 2.6 0.8 88 12 3   100.72     LegendNANA
22:00 2.5 0.5 87 10 4   100.74     LegendNANA
23:00 2.3 0.6 88 9 5   100.78     LegendNANA

Notes on Data Quality.

Legend

  • E = Estimated
  • M = Missing
  • NA = Not Available
  • ‡ = Partner data that is not subject to review by the National Climate Archives
Date modified: